This is the latest recevied weather packets stored in our database for station/object K9JWM. If no packets are shown the sender has not sent any weather packets the latest 10 day(s).
| Time | Temp. | Humidity | Pressure | Rain* | Wind** | Luminosity | Snow |
|---|---|---|---|---|---|---|---|
| 1777307993 | 10.56° C | 97% | 1004 hPa | 0 mm | - | - | - |
| 1777307093 | 10.56° C | 97% | 1004.5 hPa | 0 mm | - | - | - |
| 1777306193 | 10.56° C | 97% | 1004.8 hPa | 0 mm | - | - | - |
| 1777305294 | 10.56° C | 97% | 1005 hPa | 0 mm | - | - | - |
| 1777304394 | 10° C | 97% | 1005.3 hPa | 0.76 mm | - | - | - |
| 1777303493 | 10° C | 97% | 1005.2 hPa | 1.27 mm | - | - | - |
| 1777302595 | 10° C | 97% | 1005.5 hPa | 1.27 mm | - | - | - |
| 1777301693 | 9.44° C | 96% | 1005.7 hPa | 1.27 mm | - | - | - |
| 1777300794 | 9.44° C | 96% | 1006.1 hPa | 0.76 mm | - | - | - |
| 1777299894 | 8.89° C | 96% | 1006.4 hPa | 1.27 mm | - | - | - |
| 1777298994 | 8.89° C | 95% | 1006.6 hPa | 2.03 mm | - | - | - |
| 1777298093 | 8.89° C | 95% | 1007.1 hPa | 2.29 mm | - | - | - |
| 1777297194 | 8.89° C | 94% | 1007.4 hPa | 2.54 mm | - | - | - |
| 1777296293 | 8.89° C | 93% | 1007.6 hPa | 1.52 mm | - | - | - |
| 1777295394 | 9.44° C | 91% | 1007.7 hPa | 0.76 mm | - | - | - |
| 1777294493 | 10° C | 88% | 1007.6 hPa | 0.51 mm | - | - | - |
| 1777293594 | 9.44° C | 88% | 1007.9 hPa | 0 mm | - | - | - |
| 1777292694 | 9.44° C | 89% | 1008.2 hPa | 0 mm | - | - | - |
| 1777291793 | 9.44° C | 90% | 1008.2 hPa | 0 mm | - | - | - |
| 1777290894 | 8.89° C | 92% | 1008.6 hPa | 0 mm | - | - | - |
| 1777289993 | 8.33° C | 95% | 1008.5 hPa | 0 mm | - | - | - |
| 1777289093 | 7.22° C | 97% | 1008.8 hPa | 0 mm | - | - | - |
| 1777288194 | 6.11° C | 97% | 1009.3 hPa | 0 mm | - | - | - |
| 1777287292 | 5° C | 96% | 1009.8 hPa | 0 mm | - | - | - |
| 1777286393 | 5° C | 95% | 1010.3 hPa | 0 mm | - | - | - |
* Rain latest hour (hover to see other rain measurements)
** Current wind speed in m/s (hover to see current wind gust speed)